{"data":{"norad_id":66329,"epoch":"2026-09-20T05:01:01.766208Z","epoch_age_seconds":121860,"freshness":"FRESH","line1":"1 66329U 25253L   26263.20904822  .00015927  00000+0  58689-3 0  9991","line2":"2 66329  43.0034 193.9707 0001540 264.2945  95.7731 15.27589500 49995","mean_motion":15.275895,"eccentricity":0.000154,"inclination_deg":43.0034,"raan_deg":193.9707,"arg_perigee_deg":264.2945,"mean_anomaly_deg":95.7731,"bstar":0.00058689,"rev_number":4999,"period_min":94.266162473623,"perigee_km":481.9640314914,"apogee_km":484.07726804753,"semimajor_km":6861.1576497695,"source":"CELESTRAK","updated_at":"2026-09-21T09:00:35.874796Z"}}